ARIRANG-2 (KOMPSAT-2)

Last updated on Mon Nov 03 2025 00:02:34 GMT+0000 (Coordinated Universal Time)

1 29268U 06031A 25306.54073541 .00000474 00000+0 97928-4 0 9995 2 29268 97.8295 136.9695 0015793 74.1904 9.6768 14.64439190 28308
UTC large
Height (km)
Speed (km/s)
/
Latitude / Longitude
Inclination (degrees)
Orbital Period (minutes)
Azimuth
Elevation
Range (km)
Doppler Factor

Next 0 passes for location: London (51.5072 / 0.1276)

Sorry there are no passes over London.